GORIZONT 2 1 11440U 79062A 21063.63599355 -.00000167 00000-0 00000-0 0 9996 2 11440 10.3483 307.4129 0003065 350.9361 174.4415 1.00304226118664 SL-12 R/B(2) 1 14005U 79062D 21062.73591069 -.00000035 00000-0 00000-0 0 9994 2 14005 11.8103 312.2313 0001926 164.2216 20.3913 0.97669233102928